User: anonymous   Login
Location: Hastringsfeld
(50.9620°N, 10.4787°E)
Time: 04:39:10
(UTC+00:00)
Language:

SJ 16-02 - Orbit

View from above orbital plane
View from above orbital plane
View from above satellite
View from above satellite

Ground track
Ground track

The orbit data is extracted from the following two-line orbital elements,

1 41634U 16043A   24060.80972029  .00001324  00000-0  14465-3 0  9994
2 41634  74.9999  60.7173 0009684 277.1012  82.9073 14.88692400416178
Epoch (UTC): 29 February 2024 19:25:59
Eccentricity: 0.0009684
inclination: 74.9999°
perigee height: 595 km
apogee height: 609 km
right ascension of ascending node: 60.7173°
argument of perigee: 277.1012°
revolutions per day: 14.88692400
mean anomaly at epoch: 82.9073°
orbit number at epoch: 41617

The dashed part of the orbit path shows where the satellite is in the earth's shadow,  

DLR